Nome, AK

2:35 AM AKDT on August 20, 2017 (GMT -0800)
Nome

Weather History for PAOM - May, 2013

Change the Weather History Date:

Wednesday, May 22, 2013

  Actual Average Record
Temperature  
Mean Temperature 36 °F 40 °F  
Max Temperature 38 °F 46 °F 72 °F (2002)
Min Temperature 34 °F 33 °F 15 °F (1966)
Degree Days  
Heating Degree Days 29 25  
Month to date heating degree days 865 662  
Since 1 July heating degree days 13606 12972  
Cooling Degree Days 0 0  
Month to date cooling degree days 0 0  
Year to date cooling degree days 0 0  
Moisture  
Dew Point 35 °F    
Average Humidity 0    
Maximum Humidity 0    
Minimum Humidity 0    
Precipitation  
Precipitation 0.33 in 0.03 in 0.41 in (1960)
Month to date precipitation 1.72 0.61  
Year to date precipitation 4.18 3.89  
Snow  
Snow 0.00 in 0.00 in 3.00 in (1920)
Month to date snowfall 10.5 2.0  
Since 1 July snowfall 65.4 75.1  
Snow Depth 5.00 in    
Sea Level Pressure  
Sea Level Pressure 29.89 in    
Wind  
Wind Speed 15 mph (East)    
Max Wind Speed 22 mph    
Max Gust Speed 28 mph    
Visibility 7 miles    
Events Rain    
T = Trace of Precipitation, MM = Missing Value Source: NWS Daily Summary

Daily Weather History Graph

Daily Weather History Graph

Search for Another Location

Airport or City:

Trip Planner

Search our weather history database for the weather conditions in past years. The results will help you decide how hot, cold, wet, or windy it might be!

Date:

Astronomy

May. 22, 2013 Rise Set
Actual Time 5:18 AM AKDT 12:41 AM AKDT
Civil Twilight 3:30 AM AKDT 2:26 AM AKDT
Nautical Twilight Sun does not set Sun does not set
Astronomical Twilight Sun does not set Sun does not set
Moon 9:18 PM AKDT (5/22) 4:47 AM AKDT (5/22)
Length of Visible Light 22h 55m
Length of Day
19h 22m
Waxing Gibbous, 92% of the Moon is Illuminated
May 22
Waxing Gibbous
May 24
Full
May 31
Last Quarter
Jun 8
New
Jun 16
First Quarter

Hourly Weather History & Observations

Time (AKDT) Temp. Windchill Dew Point Humidity Pressure Visibility Wind Dir Wind Speed Gust Speed Precip Events Conditions
12:53 AM 36.0 °F 26.0 °F 34.0 °F 93% 29.94 in 7.0 mi East 17.3 mph - 0.02 in Rain Light Rain
1:53 AM 37.0 °F 26.2 °F 35.1 °F 93% 29.93 in 10.0 mi East 21.9 mph - 0.01 in Rain Light Rain
2:53 AM 37.0 °F 26.7 °F 35.1 °F 93% 29.92 in 10.0 mi East 19.6 mph 27.6 mph 0.00 in Rain Light Rain
3:53 AM 35.1 °F 25.5 °F 34.0 °F 96% 29.92 in 9.0 mi East 15.0 mph - 0.03 in Rain Light Rain
4:53 AM 35.1 °F 25.5 °F 34.0 °F 96% 29.90 in 10.0 mi East 15.0 mph - 0.00 in Rain Light Rain
5:53 AM 35.1 °F 25.5 °F 34.0 °F 96% 29.90 in 10.0 mi East 15.0 mph - 0.01 in Rain Light Rain
6:53 AM 35.1 °F 25.5 °F 34.0 °F 96% 29.89 in 6.0 mi East 15.0 mph - 0.02 in Rain Light Rain
7:13 AM 35.6 °F 25.9 °F 33.8 °F 93% 29.88 in 5.0 mi East 16.1 mph - 0.01 in Rain Light Rain
7:53 AM 35.1 °F 24.8 °F 34.0 °F 96% 29.88 in 7.0 mi East 17.3 mph - 0.03 in Rain Light Rain
8:25 AM 35.6 °F 25.9 °F 33.8 °F 93% 29.88 in 10.0 mi ENE 16.1 mph - 0.02 in Rain Light Rain
8:53 AM 35.1 °F 25.2 °F 35.1 °F 100% 29.88 in 10.0 mi East 16.1 mph - 0.02 in Rain Light Rain
9:53 AM 36.0 °F 26.7 °F 35.1 °F 97% 29.88 in 9.0 mi East 15.0 mph - 0.02 in Rain Light Rain
10:15 AM 35.6 °F 25.9 °F 35.6 °F 100% 29.87 in 8.0 mi East 16.1 mph - 0.00 in Rain Light Rain
10:31 AM 35.6 °F 25.9 °F 35.6 °F 100% 29.88 in 6.0 mi East 16.1 mph - 0.01 in Rain Light Rain
10:46 AM 35.6 °F 25.2 °F 35.6 °F 100% 29.87 in 6.0 mi East 18.4 mph - 0.02 in Rain Light Rain
10:53 AM 36.0 °F 26.0 °F 35.1 °F 97% 29.88 in 7.0 mi East 17.3 mph - 0.02 in Rain Light Rain
11:53 AM 36.0 °F 26.0 °F 35.1 °F 97% 29.88 in 10.0 mi East 17.3 mph - 0.02 in Rain Light Rain
12:53 PM 36.0 °F 27.1 °F 35.1 °F 97% 29.88 in 7.0 mi East 13.8 mph - 0.04 in Rain Light Rain
1:12 PM 35.6 °F 26.2 °F 35.6 °F 100% 29.87 in 7.0 mi East 15.0 mph - 0.03 in Rain Light Rain
1:40 PM 35.6 °F 26.2 °F 35.6 °F 100% 29.86 in 6.0 mi East 15.0 mph - 0.04 in Rain Light Rain
1:53 PM 36.0 °F 26.7 °F 35.1 °F 97% 29.87 in 5.0 mi East 15.0 mph - 0.04 in Rain Light Rain
2:01 PM 35.6 °F 26.6 °F 35.6 °F 100% 29.87 in 6.0 mi East 13.8 mph - 0.02 in Rain Light Rain
2:10 PM 35.6 °F 26.2 °F 35.6 °F 100% 29.86 in 5.0 mi East 15.0 mph - 0.02 in Rain Light Rain
2:24 PM 35.6 °F 25.9 °F 35.6 °F 100% 29.87 in 6.0 mi East 16.1 mph - 0.03 in Rain Light Rain
2:53 PM 36.0 °F 27.1 °F 35.1 °F 97% 29.88 in 7.0 mi East 13.8 mph - 0.04 in Rain Light Rain
3:53 PM 37.9 °F 28.5 °F 37.0 °F 97% 29.88 in 10.0 mi ESE 17.3 mph - 0.03 in Rain Light Rain
4:00 PM 37.4 °F 27.5 °F 35.6 °F 93% 29.88 in 10.0 mi ESE 18.4 mph - 0.00 in Rain Light Rain
4:30 PM 37.4 °F 28.2 °F 35.6 °F 93% 29.87 in 5.0 mi ESE 16.1 mph - 0.00 in Rain Light Rain
4:53 PM 37.0 °F 28.1 °F 36.0 °F 96% 29.88 in 3.0 mi ESE 15.0 mph - 0.00 in Rain Light Rain
5:35 PM 35.6 °F 26.2 °F 35.6 °F 100% 29.87 in 3.0 mi ESE 15.0 mph - 0.00 in   Overcast
5:49 PM 35.6 °F 26.2 °F 35.6 °F 100% 29.89 in 3.0 mi ESE 15.0 mph - 0.00 in   Overcast
5:53 PM 36.0 °F 26.7 °F 36.0 °F 100% 29.89 in 3.0 mi ESE 15.0 mph - 0.00 in   Overcast
6:17 PM 37.4 °F 28.5 °F 35.6 °F 93% 29.89 in 4.0 mi ESE 15.0 mph - N/A   Overcast
6:36 PM 35.6 °F 27.1 °F 35.6 °F 100% 29.89 in 2.5 mi ESE 12.7 mph - N/A   Overcast
6:53 PM 36.0 °F 28.0 °F 36.0 °F 100% 29.89 in 2.0 mi ESE 11.5 mph - 0.00 in Rain Light Rain
7:09 PM 35.6 °F 27.5 °F 35.6 °F 100% 29.90 in 3.0 mi SE 11.5 mph - 0.00 in   Overcast
7:48 PM 35.6 °F 27.5 °F 35.6 °F 100% 29.90 in 7.0 mi ESE 11.5 mph - 0.00 in   Overcast
7:53 PM 36.0 °F 28.0 °F 36.0 °F 100% 29.91 in 7.0 mi ESE 11.5 mph - 0.00 in   Overcast
8:36 PM 35.6 °F 27.5 °F 35.6 °F 100% 29.91 in 7.0 mi ESE 11.5 mph - 0.00 in Rain Light Rain
8:53 PM 36.0 °F 28.0 °F 35.1 °F 97% 29.91 in 7.0 mi ESE 11.5 mph - 0.00 in Rain Light Rain
9:53 PM 35.1 °F 27.9 °F 34.0 °F 96% 29.91 in 7.0 mi ESE 9.2 mph - 0.00 in Rain Light Rain
10:47 PM 35.6 °F 27.5 °F 33.8 °F 93% 29.91 in 2.5 mi ESE 11.5 mph - 0.00 in   Overcast
10:53 PM 35.1 °F 27.4 °F 34.0 °F 96% 29.92 in 1.2 mi ESE 10.4 mph - 0.00 in   Light Drizzle
11:17 PM 35.6 °F 28.0 °F 33.8 °F 93% 29.92 in 3.0 mi ESE 10.4 mph - 0.00 in   Overcast
11:30 PM 35.6 °F 28.0 °F 33.8 °F 93% 29.93 in 9.0 mi ESE 10.4 mph - 0.00 in   Overcast
11:53 PM 35.1 °F 27.9 °F 34.0 °F 96% 29.93 in 10.0 mi ESE 9.2 mph - 0.00 in   Overcast